Location: Unspecified
(57.8886°N, 0.0000°E)
Time: 02:04:17
(UTC+00:00)

Daily predictions for brighter satellites

Satellite Brightness Start Highest point End
(mag) Time Altitude Azimuth Time Altitude Azimuth Time Altitude Azimuth
RESURS DK-1 4.3 00:06:06 21° ENE 00:06:06 21° ENE 00:07:45 10° NE
USA 281 3.2 00:08:49 45° SE 00:11:01 77° NE 00:17:37 10° NNW
SJ 16-02 3.0 00:07:33 10° NNW 00:11:20 28° NE 00:12:35 24° ENE
Cosmos 2150 Rocket 4.5 00:12:53 46° E 00:12:53 46° E 00:17:22 10° NE
Cosmos 921 Rocket 3.5 00:09:22 10° NNW 00:13:31 60° NE 00:13:31 60° NE
Cosmos 1125 Rocket 3.4 00:16:01 74° W 00:16:17 76° WNW 00:21:34 10° NNE
Cosmos 1140 Rocket 3.3 00:16:27 10° NNW 00:21:37 87° WNW 00:21:37 87° WNW
Cosmos 1782 Rocket 4.2 00:23:20 49° NW 00:23:20 49° NW 00:27:07 10° N
Landsat 5 4.2 00:19:04 10° NNE 00:22:10 47° NE 00:22:10 47° NE
Cosmos 2360 Rocket 4.2 00:19:04 10° WNW 00:23:47 26° NNW 00:28:31 10° NE
ARGOS Delta rocket 3.8 00:20:33 10° NNE 00:24:27 68° N 00:24:27 68° N
Cosmos 2297 3.6 00:20:08 10° NW 00:25:52 70° WSW 00:25:55 70° SW
Cosmos 1816 Rocket 4.4 00:19:43 10° NNW 00:26:03 80° ENE 00:27:12 61° SSE
Cosmos 2322 Rocket 4.3 00:21:36 10° WNW 00:26:13 25° NNW 00:30:50 10° NE
ATLAS 5 CENTAUR R/B 2.6 00:23:24 10° WNW 00:26:38 37° N 00:30:29 10° E
Cosmos 1943 Rocket 4.4 00:24:38 10° WNW 00:26:42 12° W 00:26:42 12° W
DNEPR-1 R/B 4.2 00:30:44 48° ENE 00:30:44 48° ENE 00:34:10 10° NE
Cosmos 1605 Rocket 4.1 00:29:35 52° WSW 00:30:42 61° WNW 00:36:46 10° N
NOSS 3-4 (A) 3.1 00:31:16 69° SE 00:31:16 69° SE 00:37:22 10° ENE
NOSS 3-4 (C) 3.1 00:31:43 68° SE 00:31:43 68° SE 00:37:51 10° ENE
Cosmos 2151 Rocket 4.2 00:33:41 48° ENE 00:33:41 48° ENE 00:37:31 10° NNE
Cosmos 2237 Rocket 2.3 00:34:15 57° WSW 00:35:17 70° NW 00:41:02 10° NE
Cosmos 1980 3.9 00:34:12 54° W 00:35:19 66° NW 00:40:59 10° NE
PSLV R/B 4.3 00:32:33 10° N 00:36:31 44° NW 00:36:31 44° NW
USA 267 3.6 00:31:21 10° ENE 00:37:28 45° SE 00:37:28 45° SE
NOSS 0 Rocket 4.3 00:36:10 37° WSW 00:38:32 59° NW 00:44:44 10° NE
Cosmos 2058 4.4 00:34:57 10° NNW 00:37:16 27° NW 00:37:16 27° NW
Cosmos 967 Rocket 4.4 00:33:45 10° NW 00:40:13 71° SW 00:41:02 63° S
USA 229 DEB 4.4 00:34:28 10° WNW 00:41:04 56° N 00:48:35 10° E
USA 229 4.4 00:34:31 10° WNW 00:41:07 56° N 00:48:38 10° E
CZ-2C R/B 3.0 00:41:30 51° WSW 00:41:36 51° W 00:47:03 10° NNW
Cosmos 2016 Rocket 4.5 00:41:45 43° SE 00:43:15 52° E 00:49:25 10° NNE
Cosmos 371 Rocket 3.6 00:39:18 10° NNW 00:44:06 61° NE 00:44:45 55° E
CZ-2C R/B 2.8 00:40:37 10° NNE 00:45:25 75° WNW 00:45:28 75° WNW
Okean 2 Rocket 3.6 00:46:36 50° ENE 00:46:36 50° ENE 00:50:30 10° NNE
Cosmos 1459 Rocket 4.0 00:46:28 59° SSE 00:47:42 77° E 00:54:05 10° NNE
COSMOS 2428 3.9 00:47:15 22° W 00:50:26 39° NW 00:55:49 10° NE
Cosmos 2100 Rocket 3.8 00:49:36 64° S 00:50:39 85° E 00:56:50 10° NNE
Sich 1 Rocket 4.2 00:51:51 48° E 00:51:51 48° E 00:55:57 10° NNE
Cosmos 304 Rocket 3.8 00:47:02 10° NNW 00:51:48 72° ENE 00:52:00 71° E
Cosmos 1315 Rocket 3.8 00:53:36 39° NNW 00:53:36 39° NNW 00:56:26 10° N
Meteor 2-3 Rocket 3.5 00:47:04 10° NNW 00:52:46 81° WSW 00:53:19 72° SSW
NOSS 3-1 (C) 3.8 00:48:21 10° WNW 00:54:51 66° SW 00:57:28 43° SSE
Cosmos 2263 4.4 00:50:27 10° NW 00:55:28 51° W 00:55:28 51° W
Cosmos 2298 Rocket 3.8 00:56:17 80° S 00:56:35 87° ESE 01:01:57 10° NNE
ATLAS 3B R/B 3.6 00:48:52 10° WNW 00:56:38 57° N 01:04:18 10° E
IDEFIX/ARIANE 42P 3.9 00:53:37 10° NNE 00:58:03 28° E 00:59:14 26° ESE
Cosmos 2173 Rocket 3.8 00:58:28 63° SSW 00:59:32 88° W 01:05:41 10° NNE
ARIANE 6 FM1 Upper Stage 3.3 01:01:16 49° NNW 01:01:25 50° N 01:05:19 10° ENE
Cosmos 1356 Rocket 4.1 01:05:24 46° NW 01:05:24 46° NW 01:08:50 10° N
Cosmos 2219 Rocket 4.2 01:01:21 10° WNW 01:05:53 24° NNW 01:10:25 10° NE
Cosmos 1536 Rocket 4.4 01:02:38 10° NNW 01:05:54 40° WNW 01:05:54 40° WNW
Cosmos 2369 Rocket 3.0 01:02:13 10° NW 01:06:27 35° W 01:06:27 35° W
CZ-4C R/B 4.5 01:14:31 10° N 01:16:40 32° NNW 01:16:40 32° NNW
Cosmos 2084 Rocket 4.2 01:19:33 42° E 01:19:33 42° E 01:22:37 10° ENE
USA 234 4.5 01:21:12 23° W 01:21:12 23° W 01:24:14 10° WNW
Cosmos 1802 Rocket 4.0 01:21:30 54° SSW 01:23:06 85° W 01:29:31 10° NNE
Cosmos 407 Rocket 3.5 01:20:10 10° NW 01:25:07 59° WSW 01:25:07 59° WSW
Cosmos 1892 Rocket 3.6 01:21:29 10° NNW 01:25:39 72° WNW 01:25:39 72° WNW
Cosmos 2228 3.9 01:26:15 38° ESE 01:26:37 39° E 01:30:34 10° NNE
Cosmos 1943 3.5 01:25:57 46° SSE 01:26:55 52° ESE 01:32:26 10° NE
Cosmos 1626 Rocket 4.2 01:26:08 10° N 01:30:22 50° ENE 01:31:19 42° ESE
Cosmos 1697 Rocket 3.9 01:26:10 10° NW 01:31:34 42° NE 01:36:55 10° ESE
MSX 4.4 01:26:16 10° NNE 01:31:50 49° E 01:33:43 36° SSE
Okean 1 Rocket 3.0 01:34:05 71° WNW 01:34:05 71° WNW 01:38:17 10° N
Lacrosse 5 rocket 3.1 01:38:37 18° E 01:38:37 18° E 01:39:33 10° E
SL-16 R/B 2.2 01:36:11 53° WSW 01:37:31 75° NW 01:43:14 10° NE
Cosmos 968 Rocket 4.4 01:33:25 10° NNW 01:38:25 48° NE 01:43:26 10° SE
Meteor 2-1 Rocket 4.3 01:37:37 54° SSW 01:39:01 79° WNW 01:44:59 10° NNE
NOSS 3-1 (A) 3.7 01:33:13 10° WNW 01:39:46 71° SW 01:48:07 10° SE
SL-08 R/B 4.3 01:39:08 52° SSW 01:40:47 85° WNW 01:46:58 10° NNE
RESURS DK-1 2.9 01:41:19 46° NW 01:41:25 46° NW 01:45:17 10° NNE
PSLV R/B 4.0 01:38:22 10° NNE 01:41:47 62° NNW 01:41:47 62° NNW
Cosmos 2061 Rocket 4.0 01:40:34 46° S 01:42:35 80° E 01:48:49 10° NNE
Cosmos 2285 Rocket 4.5 01:40:44 35° WSW 01:43:11 52° NW 01:49:25 10° NNE
Cosmos 1980 Rocket 3.9 01:38:03 10° NW 01:43:12 33° NNE 01:48:20 10° E
Cosmos 1725 Rocket 4.0 01:41:30 49° SW 01:43:16 71° WNW 01:49:37 10° N
NPP 4.3 01:38:07 10° NNE 01:43:21 47° E 01:45:13 34° SSE
Cosmos 1743 4.2 01:40:32 10° NNW 01:41:56 24° NNW 01:41:56 24° NNW
COSMOS 2455 2.7 01:38:01 10° NW 01:44:01 69° SW 01:46:21 38° SSE
ACS3 Solar Sail 1.7 01:38:41 10° NNE 01:44:38 80° ESE 01:46:32 46° S
Cosmos 1782 3.1 01:48:38 53° ENE 01:48:38 53° ENE 01:51:49 10° NNE
SJ 16-02 1.6 01:45:29 10° NNW 01:49:04 52° WNW 01:49:04 52° WNW
SL-16 R/B 4.4 01:44:41 10° ESE 01:50:02 31° NE 01:55:23 10° N
Meteor 1-20 Rocket 4.5 01:46:11 10° NNW 01:51:43 64° ENE 01:55:10 23° SE
Spot 1 3.9 01:48:02 10° NNE 01:52:08 67° WNW 01:52:09 67° WNW
Cosmos 1656 3.5 01:48:59 10° NW 01:54:27 85° SW 01:57:28 27° SSE
USA 281 3.8 01:55:39 34° WSW 01:56:04 35° WSW 02:02:00 10° NW
Cosmos 332 Rocket 3.9 01:51:46 10° NNW 01:56:39 72° ENE 01:59:52 21° SE
Cosmos 2251 Rocket 3.5 01:55:57 10° NW 02:01:10 61° WSW 02:02:05 52° SSW
Resurs 1-4 Rocket 3.6 01:56:58 10° NNE 02:01:38 30° E 02:05:13 15° SE
Cosmos 1190 Rocket 4.0 01:58:40 10° NW 02:03:55 62° WSW 02:05:00 50° SSW
H-2A R/B 2.9 02:02:40 33° SE 02:04:04 52° ENE 02:07:45 10° N
Tsikada Rocket 4.4 01:58:04 10° NNW 02:04:09 47° W 02:05:41 40° SW
Cosmos 1455 Rocket 3.0 02:03:57 65° WSW 02:04:22 70° WNW 02:08:46 10° N
Cosmos 1758 Rocket 3.4 02:02:18 10° NNW 02:06:39 90° SE 02:07:25 60° SSE
ATLAS 5 CENTAUR R/B 1.3 02:05:23 10° WNW 02:09:06 81° NNE 02:13:43 10° ESE
Cosmos 1544 Rocket 4.3 02:08:05 34° SE 02:09:34 49° E 02:13:51 10° NNE
DMSP B5D2-2 4.1 02:10:17 23° SSE 02:13:36 79° ENE 02:18:49 10° NNW
SL-16 R/B 4.4 02:10:45 10° NW 02:15:26 25° NNE 02:20:06 10° ENE
Cosmos 2233 Rocket 4.2 02:14:28 39° SW 02:16:45 61° WNW 02:23:02 10° N
CZ-2D R/B 3.4 02:13:29 10° NNE 02:18:14 34° E 02:21:58 15° SSE
Cosmos 2237 Rocket 3.8 02:16:02 13° W 02:20:19 29° NNW 02:25:16 10° NE
USA 267 3.2 02:14:36 10° ENE 02:21:12 76° SSE 02:24:48 30° WSW
Meteor 1-25 Rocket 4.4 02:16:06 10° NNW 02:22:00 80° ENE 02:27:01 14° SSE
NOSS 3-4 (A) 3.8 02:18:39 22° W 02:22:18 59° NNW 02:28:46 10° ENE
ADEOS II 3.7 02:18:11 10° NNE 02:22:46 30° E 02:27:18 10° SSE
NOSS 3-4 (C) 3.8 02:19:06 22° W 02:22:46 59° NNW 02:29:15 10° ENE
Cosmos 371 Rocket 4.4 02:19:53 10° NW 02:23:10 27° W 02:23:10 27° W
Cosmos 1464 Rocket 4.3 02:20:08 23° SSE 02:24:04 62° E 02:30:10 10° NNE
Okean 2 Rocket 4.3 02:23:48 27° WNW 02:24:26 28° WNW 02:28:15 10° N
Cosmos 1818 3.5 02:19:19 10° NW 02:24:48 86° SW 02:30:17 10° SE
Aureole 3 Rocket 2.6 02:25:14 62° W 02:25:18 62° WNW 02:29:21 10° N
Cosmos 2360 4.2 02:27:09 10° NW 02:32:44 58° WSW 02:37:03 17° SSE
USA 229 DEB 4.0 02:25:43 10° WNW 02:32:46 77° NNE 02:40:47 10° ESE
USA 229 4.0 02:25:46 10° WNW 02:32:50 77° NNE 02:40:51 10° ESE
Cosmos 44 3.4 02:31:59 41° SW 02:33:51 86° SE 02:39:15 10° NE
Cosmos 676 Rocket 4.0 02:28:52 10° NW 02:34:05 57° WSW 02:36:32 30° S
IDEFIX/ARIANE 42P 2.6 02:32:48 10° NNE 02:37:57 65° WNW 02:39:56 37° SW
COSMOS 2441 4.4 02:33:07 10° NNE 02:38:00 76° ESE 02:40:15 32° S
GP-B 3.0 02:34:25 10° N 02:38:49 85° W 02:40:30 38° S
NOAA 11 4.3 02:33:23 10° NNE 02:38:51 73° ESE 02:41:55 27° S
Cosmos 1933 3.6 02:39:15 34° SSE 02:40:40 58° E 02:44:25 10° NNE
Cosmos 1602 Rocket 3.4 02:36:22 10° NNW 02:40:46 73° W 02:42:28 36° S
Cosmos 1420 Rocket 3.9 02:38:37 36° SSW 02:40:48 86° ESE 02:46:06 10° NNE
ARIANE 6 FM1 Upper Stage 3.3 02:37:13 11° WNW 02:40:54 51° NNE 02:44:47 10° E
Cosmos 1428 Rocket 4.4 02:34:37 10° NNW 02:40:56 82° W 02:46:13 16° S
Nadezhda 4 Rocket 3.9 02:34:40 10° NNW 02:40:57 74° W 02:45:21 20° S
Cosmos 1825 Rocket 3.8 02:37:00 10° N 02:41:21 67° ENE 02:45:09 13° SSE
Spot 2 4.1 02:39:54 24° SSE 02:42:37 83° WSW 02:47:21 10° NNW
Cosmos 1833 Rocket 4.2 02:39:51 11° SSE 02:44:16 29° ESE 02:49:00 10° NE
Cosmos 1954 Rocket 4.5 02:39:25 10° NW 02:44:19 39° WSW 02:45:21 35° SW
Cosmos 1603 3.7 02:42:05 33° SSW 02:44:43 81° ESE 02:50:26 10° NE
Cosmos 2098 Rocket 3.8 02:41:43 22° S 02:44:53 62° E 02:50:17 10° NNE
Cosmos 2056 Rocket 3.9 02:42:22 27° S 02:45:11 62° ESE 02:50:32 10° NE
Cosmos 2333 Rocket 4.2 02:40:47 10° NW 02:45:39 28° NNE 02:50:31 10° E
ATLAS 3B R/B 3.2 02:40:24 10° WNW 02:48:21 76° NNE 02:56:00 10° ESE
Cosmos 1850 Rocket 3.9 02:43:41 10° NNW 02:48:57 89° WSW 02:54:09 10° SSE
MOZ.5/SAFIR/RUBIN 5/SL-8 4.2 02:49:45 36° SW 02:50:55 43° W 02:55:25 10° NNW
Cosmos 2151 3.2 02:47:31 10° NNW 02:51:32 47° W 02:52:22 41° SW
Cosmos 2219 Rocket 4.5 02:47:17 10° NW 02:51:41 23° N 02:56:04 10° ENE
H-2A R/B 2.8 02:50:07 10° NNE 02:54:52 46° E 02:59:20 12° S
ALOS 2.7 02:51:29 10° NNE 02:56:00 57° ESE 02:59:11 19° S
BREEZE-M DEB (TANK) 4.2 02:55:57 28° SW 02:57:14 31° S 03:02:11 10° SE
Cosmos 2084 Rocket 3.9 02:55:20 27° W 02:57:21 54° NNW 03:01:29 10° ENE
Cosmos 2195 Rocket 4.5 02:51:53 10° NNW 02:58:15 79° W 03:04:34 10° S
Cosmos 1624 Rocket 4.1 02:55:25 26° SSW 02:58:21 72° ESE 03:03:33 10° NNE
Cosmos 2228 3.9 03:02:29 29° W 03:03:38 34° WNW 03:07:32 10° N
Cosmos 1092 Rocket 4.0 02:58:18 10° NNW 03:04:35 89° ENE 03:10:46 10° S
ADEOS Rocket 3.3 02:58:41 10° NNE 03:05:18 79° WNW 03:10:37 20° SSW
Cosmos 1943 3.7 03:07:42 23° WSW 03:11:03 49° NW 03:16:36 10° NE
FENGYUN 3A 4.0 03:06:10 10° NNE 03:11:25 53° WNW 03:14:25 25° SW
Lacrosse 5 rocket 0.6 03:11:54 39° W 03:12:54 67° S 03:16:08 10° ESE
MSX 4.4 03:08:07 10° N 03:13:32 45° WNW 03:16:45 23° WSW
Cosmos 1437 Rocket 2.9 03:13:30 20° S 03:15:38 58° E 03:19:01 10° NNE
Cosmos 1697 Rocket 2.6 03:10:14 10° NW 03:15:50 64° WSW 03:21:24 10° SSE
Cosmos 2026 Rocket 3.9 03:11:22 10° NNW 03:17:27 70° W 03:23:36 10° S
SL-19 R/B 4.5 03:14:18 10° NNE 03:19:58 73° ESE 03:25:01 13° SSW
Cosmos 968 Rocket 3.8 03:15:16 10° NW 03:20:07 42° WSW 03:24:59 10° S
SL-16 R/B 3.6 03:18:01 12° W 03:22:30 30° NNW 03:27:30 10° NE
Cosmos 1782 4.2 03:22:35 18° WNW 03:23:18 19° WNW 03:25:58 10° NNW
NPP 4.2 03:18:30 10° N 03:23:35 43° WNW 03:26:44 21° WSW
Envisat 3.0 03:18:30 10° NNE 03:23:36 77° WNW 03:27:20 19° SSW
Cosmos 1371 Rocket 4.0 03:22:12 22° SW 03:25:37 80° WNW 03:30:56 10° NNE
ACS3 Solar Sail 2.8 03:21:39 10° N 03:26:37 30° NW 03:30:09 17° WSW
Cosmos 1980 Rocket 2.2 03:22:09 10° NW 03:27:53 89° NE 03:33:37 10° SE
Cosmos 1606 Rocket 3.5 03:25:08 16° SSW 03:28:38 89° NW 03:33:07 10° NNE
COSMOS 2455 4.0 03:24:50 10° WNW 03:28:59 20° WSW 03:29:24 19° WSW
Meteor 2-10 4.1 03:26:27 10° NNW 03:31:30 57° W 03:36:41 10° S
Cosmos 1805 3.3 03:28:37 10° NNW 03:31:41 37° W 03:32:50 27° SW
SL-16 R/B 2.5 03:26:48 10° SSE 03:33:03 86° WSW 03:39:23 10° NNW
Cosmos 1741 Rocket 4.2 03:28:17 10° NW 03:33:23 50° WSW 03:38:27 10° S
SL-24 R/B 4.4 03:28:33 10° N 03:33:24 85° E 03:38:22 10° S
Cosmos 1110 Rocket 4.3 03:29:21 13° SSW 03:34:00 64° ESE 03:39:14 10° NNE
Cosmos 1331 Rocket 4.4 03:31:29 12° SSW 03:36:21 64° ESE 03:41:36 10° NE
Okean 1-7 Rocket 4.1 03:32:34 10° NNW 03:36:37 37° W 03:39:26 17° SSW
Cosmos 1634 Rocket 4.1 03:30:34 10° S 03:36:48 77° E 03:43:00 10° NNE
H-2A R/B 3.4 03:37:39 22° WSW 03:38:17 23° W 03:41:20 10° NW
Cosmos 292 Rocket 4.3 03:34:16 10° NW 03:38:39 36° WSW 03:43:02 10° S
Cosmos 1908 2.9 03:36:54 10° NNW 03:38:30 28° WNW 03:38:30 28° WNW
Cosmos 1536 3.0 03:35:15 10° N 03:38:58 68° ENE 03:42:38 10° SSE
Resurs 1-4 Rocket 2.2 03:36:31 10° NNE 03:41:49 65° WNW 03:46:16 15° SW
Aureole 1 4.2 03:42:00 23° SW 03:43:45 65° WNW 03:46:45 10° NNE
AQUA 4.4 03:39:32 10° NNE 03:44:11 57° ESE 03:48:47 10° S
Cosmos 1076 Rocket 3.7 03:41:14 10° NNW 03:45:24 48° W 03:49:34 10° SSW
Cosmos 1452 Rocket 4.0 03:41:42 10° S 03:46:50 58° ESE 03:51:59 10° NE
ATLAS 5 CENTAUR R/B 2.4 03:47:32 10° WNW 03:51:03 29° SW 03:55:15 10° S
Cosmos 1766 2.6 03:51:11 10° NNW 03:54:25 82° W 03:57:38 10° S
Cosmos 1953 Rocket 3.8 03:50:48 10° NNW 03:55:05 47° W 03:59:21 10° SSW
BREEZE-M DEB (TANK) 4.2 03:41:49 10° W 03:55:07 43° SSW 03:59:09 10° ESE
Cosmos 2360 Rocket 3.8 03:49:57 10° NW 03:55:11 36° NNE 04:00:25 10° E
Cosmos 2322 Rocket 3.7 03:52:25 10° NNW 03:57:40 38° NE 04:02:54 10° ESE
ARGOS 3.5 03:52:21 10° NNE 03:57:47 69° ESE 04:03:11 10° S
CZ-2D R/B 2.3 03:53:24 10° NNE 03:58:29 55° WNW 04:03:14 12° SW
SL-16 R/B 3.1 03:55:11 10° NW 04:00:46 52° NE 04:06:18 10° ESE
ADEOS II 2.2 03:57:30 10° NNE 04:02:42 64° WNW 04:07:52 10° SW
Meteor 1-28 Rocket 3.0 03:59:51 10° SSE 04:03:09 76° ENE 04:06:28 10° NNW
USA 267 3.3 03:57:52 10° E 04:04:28 84° S 04:11:05 10° W
Cosmos 2237 Rocket 4.3 04:01:46 10° NW 04:06:10 22° N 04:10:34 10° NE
Cosmos 1818 4.5 04:03:20 10° WNW 04:07:48 26° WSW 04:12:15 10° S
Meteor 1-26 Rocket 4.2 04:02:27 10° S 04:07:58 85° ESE 04:13:24 10° NNE
Cosmos 1726 Rocket 3.8 04:03:59 10° SSW 04:08:31 56° WNW 04:12:56 10° N
UNK 3.9 04:05:14 10° SSE 04:09:51 81° ENE 04:14:29 10° NNW
SL-08 ROCKET BODY 4.4 04:04:12 10° NNW 04:09:57 58° W 04:15:44 10° S
Geosat 4.1 04:07:32 10° SE 04:12:34 87° NE 04:17:37 10° NW
NOSS 3-4 (A) 4.2 04:08:08 10° WNW 04:14:00 56° NNE 04:20:54 10° E
NOSS 3-4 (C) 4.2 04:08:35 10° WNW 04:14:28 56° N 04:21:23 10° E
Okean 1 3.3 04:11:31 10° SSW 04:14:57 47° WNW 04:18:23 10° N
Cosmos 44 4.3 04:10:26 10° W 04:15:29 45° NNW 04:20:41 10° ENE
IDEFIX/ARIANE 42P 4.3 04:13:06 10° N 04:16:35 19° NW 04:20:03 10° W
H-2A R/B 2.0 04:15:28 10° NNE 04:19:43 87° WNW 04:23:52 10° SSW
ARIANE 6 FM1 Upper Stage 2.5 04:16:06 10° WNW 04:20:04 68° SW 04:24:00 10° SE
Cosmos 2098 Rocket 4.5 04:18:27 11° WSW 04:22:44 31° WNW 04:27:37 10° N
USA 229 DEB 4.2 04:16:38 10° WNW 04:23:39 51° SW 04:31:25 10° SSE
USA 229 4.2 04:16:42 10° WNW 04:23:43 52° SW 04:31:31 10° SSE
KORONAS-FOTON 3.7 04:23:47 10° S 04:27:06 72° E 04:30:26 10° NNE
Cosmos 2056 Rocket 4.4 04:22:36 10° WSW 04:27:35 38° NW 04:32:38 10° NNE
Cosmos 1833 Rocket 2.7 04:22:05 10° SW 04:27:43 77° NW 04:33:22 10° NE
Cosmos 1707 1.9 04:25:26 10° SSW 04:28:22 80° WNW 04:31:18 10° N
ATLAS 2AS CENTAUR R/B 3.2 04:22:43 10° SSW 04:29:31 60° SE 04:36:12 10° NE
Cosmos-2242 3.1 04:25:38 10° SSW 04:29:49 59° WNW 04:34:02 10° N
Cosmos 2333 Rocket 2.7 04:25:17 10° NW 04:30:57 66° NE 04:36:35 10° SE
Cosmos 2279 Rocket 4.0 04:25:39 10° SSW 04:31:49 70° WNW 04:38:04 10° N
Iridium 4 Rocket 3.0 04:28:16 10° S 04:32:25 84° W 04:36:51 10° N
ALOS 3.3 04:28:46 10° N 04:32:43 29° WNW 04:36:38 10° WSW
H-2A R/B 2.6 04:29:37 10° N 04:34:09 39° WNW 04:38:45 10° SW
Meteor 1-14 Rocket 4.3 04:30:00 10° NNW 04:35:55 70° W 04:41:43 10° S
Cosmos 2084 Rocket 4.4 04:32:40 10° WNW 04:36:39 42° N 04:40:41 10° ENE
Cosmos 2219 Rocket 3.6 04:31:46 10° NW 04:37:04 41° NE 04:42:22 10° ESE
Cosmos 2058 Rocket 3.2 04:33:03 10° SSW 04:37:29 57° WNW 04:41:55 10° N
ATLAS 3B R/B 3.1 04:31:28 10° NW 04:39:02 53° SW 04:46:13 10° SSE
Cosmos 1470 2.3 04:35:44 10° NNW 04:39:05 63° W 04:42:26 10° S
Cosmos 2221 2.9 04:36:03 10° S 04:40:10 66° E 04:44:19 10° NNE
Cosmos 2369 3.8 04:35:18 10° NW 04:40:52 58° WSW 04:46:26 10° SSE
Meteor 2-2 Rocket 4.3 04:36:31 10° SSW 04:42:14 68° WNW 04:47:54 10° NNE
